Wind_Speed
40 40 36 30 28 30 31 31 33 34 35 37 38 39 39 39 41 42 42 42 41 40 39 40 41 41 41 41 42 43 44 44 44 44 45 46 46 46 47 47 48 49 49 50 50 51 52 53 53 54 54 55 55 56 57 58 58 59 60 60 63 66 66 65 66 68 69 70 69 71 75 75 73 76 78 77 77 78 79 78 78 80 81 82 82 83 83 85
41 43 41 35 30 30 32 33 33 34 35 37 38 38 38 38 39 40 41 41 42 41 41 41 41 42 43 42 43 44 44 44 44 45 46 47 48 49 50 50 51 51 52 53 53 54 54 55 56 56 57 58 58 59 60 60 61 62 62 63 66 69 68 68 69 71 72 74 73 72 76 78 76 78 81 80 80 81 81 81 82 84 84 85 86 86 87 87
41 45 45 42 36 32 32 33 35 35 36 37 37 38 38 37 38 38 39 39 39 39 39 39 39 41 42 42 42 43 43 44 45 46 47 48 48 50 51 52 53 54 55 55 56 57 57 58 59 59 60 61 61 62 63 63 65 66 65 66 70 70 70 71 71 74 76 76 75 74 77 80 79 80 82 82 82 83 84 84 85 86 86 88 89 89 90 90
38 44 47 46 42 37 34 34 35 37 39 39 39 38 37 36 36 36 36 36 36 37 37 36 37 38 39 39 40 41 42 43 44 46 47 47 48 50 52 53 54 55 56 57 58 59 59 60 61 62 63 64 64 64 66 65 66 68 67 69 72 71 73 73 72 76 78 77 78 77 78 81 82 82 82 84 85 85 86 87 87 88 89 90 91 91 92 92
34 40 46 48 46 42 39 37 37 38 39 41 41 41 39 37 36 36 35 34 34 35 36 37 37 37 38 39 40 41 42 42 43 45 45 46 47 49 50 51 53 54 56 57 58 59 60 61 62 64 64 66 66 66 67 67 68 70 69 70 73 73 74 75 74 78 80 80 81 81 81 83 84 84 85 88 89 88 88 89 90 90 91 93 94 94 94 95
30 35 41 47 48 47 44 42 41 41 41 41 43 44 42 40 39 39 39 37 36 36 38 38 39 39 40 41 41 41 42 43 44 44 45 46 47 49 50 51 52 53 55 56 57 59 60 61 62 63 64 66 67 67 68 69 70 71 71 72 74 74 76 76 76 79 81 82 82 83 84 84 85 85 87 90 91 91 90 90 92 93 93 95 95 96 96 97
29 31 36 43 48 49 48 47 46 45 45 44 44 45 45 43 42 42 42 42 42 42 42 42 42 42 43 44 44 43 44 45 46 47 48 49 51 52 54 55 56 56 57 58 59 60 61 63 63 64 65 66 68 68 69 71 71 73 74 76 76 76 79 78 77 79 81 82 83 84 84 84 84 85 87 89 90 91 92 92 93 93 94 94 95 96 97 97
28 29 31 37 45 50 51 51 50 50 49 49 47 45 44 44 44 44 44 44 45 46 46 46 46 47 47 48 48 48 49 50 51 53 53 54 55 57 58 59 60 61 62 63 63 64 65 67 68 68 69 70 71 71 73 74 75 76 78 80 79 79 80 81 81 81 82 84 85 86 85 85 85 86 86 87 89 91 92 92 92 92 93 94 95 96 96 97
26 28 29 32 38 45 51 53 54 53 52 52 51 49 47 45 45 45 45 45 46 47 48 49 50 51 52 52 52 53 55 55 56 58 58 58 59 60 61 62 63 64 65 66 67 68 69 70 71 72 73 74 75 75 77 78 78 78 80 81 81 81 81 83 84 84 85 86 87 89 88 87 89 89 87 88 91 93 94 94 94 95 95 96 97 98 99 100
25 27 28 29 32 37 45 51 54 55 55 54 52 52 51 50 48 47 46 47 47 48 49 50 51 53 54 54 55 56 57 58 58 59 60 60 61 61 62 63 64 65 65 66 67 68 69 71 72 73 74 75 75 76 77 79 79 79 80 81 83 84 83 85 87 87 88 90 90 92 92 91 93 93 91 92 95 97 98 98 99 100 100 101 101 102 104 104
25 25 26 28 29 32 36 42 48 53 56 56 55 54 53 52 52 51 49 49 49 50 50 51 52 53 54 54 54 55 56 56 57 57 58 59 60 61 62 62 63 64 65 66 67 68 69 70 71 72 73 75 76 77 79 80 82 83 83 84 86 88 88 89 90 91 93 94 95 97 97 96 97 98 97 99 100 101 103 104 105 106 107 107 108 108 109 110
24 24 25 26 28 30 32 34 38 43 49 53 55 56 55 53 53 53 53 52 52 52 52 53 54 54 55 55 55 55 56 55 56 56 57 57 58 59 60 61 62 64 65 66 68 69 71 72 74 75 76 78 79 81 83 85 86 87 89 89 91 93 93 94 96 97 99 99 101 103 103 101 101 103 104 105 105 107 108 110 111 111 112 113 113 114 114 115
23 23 24 25 26 28 29 31 33 35 39 43 47 51 53 53 52 51 50 51 52 52 52 53 54 55 55 56 57 58 58 59 59 60 61 62 63 64 65 66 67 69 70 72 73 75 77 78 80 81 83 84 85 87 88 90 92 93 94 94 96 97 97 97 99 101 102 103 104 106 107 105 104 106 108 108 108 110 111 112 113 114 115 115 116 116 117 118
22 22 22 23 25 26 28 29 31 32 35 37 40 43 46 49 50 50 49 48 49 50 51 52 53 54 54 55 56 58 59 60 61 62 63 65 66 68 69 71 72 74 75 76 77 79 80 81 82 83 85 86 87 88 89 91 93 94 95 96 98 99 99 99 100 102 103 104 105 106 106 105 103 105 106 106 107 108 110 110 111 112 113 113 114 115 115 116
21 21 21 22 23 25 27 28 29 30 32 34 37 39 42 44 47 50 52 51 51 51 52 53 54 54 55 56 57 58 59 60 61 61 62 64 65 66 68 69 71 72 74 75 76 78 79 80 81 82 84 86 87 88 90 91 92 94 95 96 97 98 99 98 98 99 99 101 102 102 102 99 98 100 101 101 102 103 105 106 107 108 108 109 110 111 111 112
20 19 20 21 23 24 25 26 27 28 30 32 33 36 38 41 44 47 51 53 54 54 55 55 56 56 57 58 59 60 61 62 62 63 64 65 67 68 69 71 72 73 74 76 77 79 80 81 82 83 85 87 88 89 90 90 91 92 93 93 94 95 95 94 94 95 95 96 98 98 97 95 95 97 98 98 98 99 101 102 103 104 105 106 107 108 109 109
18 19 20 21 23 24 25 26 26 28 29 30 31 33 35 37 40 42 45 49 51 53 55 56 57 58 59 60 61 62 63 63 64 65 66 67 68 69 70 71 72 73 73 75 76 77 79 80 81 82 83 84 85 86 87 87 89 90 89 90 91 93 93 91 91 92 93 95 96 95 94 93 94 96 97 96 96 98 99 100 102 103 104 105 106 107 108 109
18 19 20 22 23 24 24 25 26 27 28 29 30 31 33 34 36 39 41 43 46 48 50 52 54 55 56 58 58 59 60 60 60 61 62 63 63 63 64 65 66 68 69 71 73 73 75 76 78 79 80 81 83 84 85 85 87 88 88 87 88 89 90 90 89 90 91 91 91 90 89 89 90 92 92 91 92 94 96 97 99 100 102 104 105 106 107 108
19 19 21 22 23 23 24 24 25 26 27 28 29 30 31 33 34 35 37 39 41 43 45 46 47 48 49 50 50 51 51 52 52 53 54 55 56 58 60 61 63 65 67 69 71 73 74 75 77 78 79 79 81 82 83 83 84 84 85 84 84 84 84 83 82 83 83 82 81 81 80 80 81 83 83 84 84 86 89 91 93 95 97 98 100 102 103 104
19 20 21 22 22 23 23 24 24 25 25 26 27 28 29 30 31 32 34 35 36 37 37 38 38 39 39 40 41 43 44 46 47 49 50 53 55 57 60 62 64 66 68 69 71 73 74 74 76 77 77 77 77 77 78 78 78 77 77 76 75 75 73 72 72 73 73 73 72 72 72 71 72 74 76 77 78 79 81 83 86 88 90 92 93 95 96 98
18 20 21 21 22 22 22 22 22 23 24 24 25 26 26 27 27 27 28 28 28 29 30 31 32 33 35 37 39 41 43 45 47 50 52 54 57 59 62 64 65 67 69 70 70 71 72 72 73 72 71 70 70 69 68 68 68 67 66 66 67 66 65 65 66 66 68 68 67 67 68 67 67 69 70 71 73 74 76 77 80 81 83 85 87 89 90 92
19 20 20 21 21 21 21 21 21 21 21 21 21 21 21 21 21 21 22 23 24 26 27 29 31 34 36 38 41 43 45 48 50 53 55 57 59 61 63 65 66 67 68 69 69 69 67 66 65 64 63 62 61 61 61 61 61 61 61 62 63 63 62 63 63 63 65 67 65 65 66 65 66 67 67 68 69 70 72 73 74 76 78 80 82 84 85 87
19 20 20 20 20 19 19 18 18 17 17 16 16 16 16 17 18 19 21 23 25 27 29 32 34 37 39 41 44 46 48 51 53 55 57 59 60 62 63 65 66 66 65 65 63 61 59 57 57 58 58 58 58 58 59 59 59 59 58 60 61 60 60 60 60 60 62 64 64 62 62 63 64 65 65 66 67 68 69 70 71 73 74 76 78 80 82 83
18 19 18 18 17 16 16 15 14 13 13 13 13 14 15 17 18 20 23 25 27 30 33 35 38 41 43 46 48 49 51 53 55 57 58 60 61 63 63 62 61 59 57 56 55 54 55 54 55 55 56 56 55 55 56 56 56 55 54 56 58 58 58 58 58 58 58 60 62 61 60 60 61 63 64 65 67 67 67 68 69 71 73 74 76 78 79 81
17 17 16 15 14 13 12 12 11 11 12 12 14 15 17 18 21 23 26 28 31 34 37 40 42 44 46 49 51 52 54 55 57 58 60 60 60 58 56 54 52 51 51 51 51 52 52 52 52 52 52 52 51 52 52 52 53 53 52 53 55 56 57 58 59 59 59 60 61 62 63 61 60 62 65 66 67 67 68 69 71 72 73 74 76 77 79 80
14 14 13 12 12 11 10 10 11 12 13 14 15 17 19 22 25 27 30 33 36 39 42 44 46 48 50 51 53 55 56 58 58 58 57 55 52 50 49 48 49 49 49 49 49 49 49 49 48 48 48 49 49 50 50 51 51 52 53 53 54 56 57 59 60 60 61 62 63 63 65 64 62 63 67 68 68 69 71 73 74 75 76 77 79 80 81 82
12 11 10 10 10 10 10 10 11 13 14 16 19 21 24 26 29 31 34 37 40 43 45 48 49 51 53 54 55 57 58 57 55 52 49 48 47 47 47 47 47 47 47 46 46 45 45 46 46 46 47 48 48 49 50 51 52 53 54 55 56 57 59 60 61 62 63 65 65 65 66 68 66 65 68 70 71 73 74 76 77 78 80 81 82 83 84 85
9 9 9 9 9 9 10 12 13 16 18 20 23 25 27 30 33 36 38 41 45 47 48 50 52 54 55 57 57 56 53 50 47 46 45 45 45 45 45 45 44 44 44 44 43 43 44 44 45 46 47 48 50 50 51 52 54 55 56 57 59 60 61 62 63 65 66 67 68 68 68 72 72 69 70 72 74 76 78 79 80 81 82 84 84 86 87 88
9 9 9 9 10 11 13 15 17 19 22 25 27 29 32 34 37 39 42 45 48 50 51 52 54 55 57 56 54 50 47 45 44 44 45 44 44 43 43 42 42 42 43 43 43 43 44 44 45 47 48 50 51 52 53 54 55 56 58 59 60 62 63 65 66 67 69 70 70 71 71 74 75 73 73 75 77 79 80 82 83 83 85 86 87 88 89 91
9 9 9 11 13 14 16 19 21 23 26 28 30 33 35 37 40 43 46 47 49 51 53 54 55 56 54 51 47 45 45 45 44 44 43 43 42 41 41 41 41 40 41 43 43 44 45 46 47 48 49 51 52 53 54 55 57 58 59 59 61 64 65 67 68 69 71 72 72 73 74 76 78 76 75 78 80 81 83 84 85 86 87 88 89 91 92 93
10 10 12 13 15 17 19 22 24 27 29 31 33 35 37 40 43 46 48 49 51 53 54 55 55 52 48 45 44 44 44 43 42 41 41 40 40 39 39 40 40 40 41 43 44 45 47 49 49 50 51 52 53 54 55 56 58 59 61 62 62 64 65 67 69 71 73 74 73 74 76 78 80 79 78 81 83 84 85 87 88 88 89 91 92 93 94 96
11 12 14 15 18 20 22 25 27 29 31 33 35 37 41 44 46 48 50 51 52 54 54 53 50 46 44 43 43 43 42 41 40 39 39 39 39 40 39 40 41 42 43 45 47 47 49 50 51 51 52 54 55 56 57 58 59 60 62 64 65 66 67 68 71 73 74 76 76 76 79 81 80 80 82 83 85 86 87 88 89 90 91 93 94 95 96 98
12 14 16 18 20 23 25 27 29 31 32 35 38 41 44 46 48 49 51 52 54 54 52 48 45 43 43 42 41 40 39 38 38 37 37 38 39 40 41 41 42 42 43 45 47 49 50 51 52 52 53 55 56 57 58 60 61 62 64 66 68 69 69 70 73 75 77 79 79 79 82 83 82 83 84 86 88 89 89 89 90 92 93 94 96 97 98 99
14 16 18 21 23 25 27 29 30 32 35 38 42 44 46 48 50 51 52 54 54 51 47 44 43 42 41 40 39 38 37 37 37 37 37 37 38 40 41 43 44 45 45 46 48 49 50 51 52 53 53 55 57 58 60 62 63 65 66 68 71 72 73 73 74 77 78 80 82 83 84 85 84 85 86 89 92 92 92 92 93 94 95 96 97 98 100 101
17 19 21 23 25 28 29 31 33 36 39 42 45 46 48 50 51 52 53 53 50 45 42 42 41 40 39 38 37 36 35 35 36 37 38 39 40 41 42 44 45 47 48 48 49 50 52 53 54 54 55 56 59 61 62 65 66 67 69 71 72 75 76 76 77 79 81 81 84 86 86 86 86 85 87 91 93 93 93 94 95 96 97 97 98 99 101 102
19 21 23 25 28 29 31 33 36 39 42 45 46 48 50 51 52 53 52 48 44 41 41 40 38 37 36 35 35 35 35 34 34 36 38 40 41 42 43 45 46 47 48 49 50 50 52 54 56 57 58 60 62 64 65 67 69 70 71 73 74 76 78 79 80 81 84 84 85 87 86 85 84 83 85 90 92 92 92 93 94 95 96 97 98 99 100 101
21 23 25 27 29 30 33 37 40 43 45 46 48 50 51 51 52 50 47 42 40 40 39 37 36 35 34 33 33 33 34 35 35 36 38 39 42 43 45 46 47 48 49 50 51 51 51 54 58 59 60 62 64 66 67 68 71 73 73 75 77 78 80 82 83 82 84 84 85 86 87 86 83 82 84 87 88 89 90 91 92 93 94 95 96 97 98 99
23 25 27 28 30 33 37 40 43 44 46 48 49 50 51 51 49 45 41 40 39 38 36 35 34 33 33 33 33 33 34 35 37 38 40 41 43 45 46 47 48 49 50 51 52 53 53 55 59 61 62 63 65 67 68 69 71 74 75 76 78 80 82 84 85 83 82 82 81 82 84 84 82 82 82 83 84 86 87 88 89 90 91 92 93 94 95 96
25 26 28 31 34 37 40 42 44 46 48 49 50 50 50 48 44 41 39 39 37 35 35 34 33 32 32 32 32 33 34 37 39 40 42 43 44 46 47 48 49 50 51 52 54 56 56 57 60 62 64 65 66 68 70 71 72 75 77 78 81 83 83 84 84 83 81 79 78 77 77 79 80 80 80 80 81 82 83 85 86 87 89 89 90 91 92 93
26 28 31 35 37 40 42 44 46 48 49 49 49 50 48 43 40 39 38 37 35 34 33 33 32 32 32 32 33 34 35 38 40 42 43 44 45 46 48 49 50 51 53 55 56 58 59 60 62 64 67 68 69 69 71 74 75 78 80 81 83 84 84 83 81 81 79 78 77 75 74 76 78 78 78 78 79 80 80 81 82 84 85 86 87 88 89 90
29 32 35 37 39 42 44 46 47 48 48 49 49 47 43 40 38 38 36 34 34 33 32 32 32 32 32 32 34 36 37 39 41 43 45 46 46 47 48 49 51 53 55 57 58 59 61 63 64 66 67 68 69 71 74 76 78 81 84 84 84 84 83 81 80 79 78 77 76 75 73 74 76 76 76 77 78 79 79 79 80 80 81 83 84 85 87 88
32 34 36 39 41 43 45 47 47 48 48 48 47 43 39 38 37 36 34 33 33 32 31 31 31 31 32 33 35 37 40 41 42 44 46 47 48 48 50 51 53 55 57 58 60 61 62 63 65 66 66 68 69 71 74 77 79 82 86 87 86 84 83 81 79 77 77 76 75 74 72 72 73 74 74 75 76 76 77 78 78 79 80 81 82 83 84 85
34 36 38 40 43 44 46 46 47 47 48 46 42 39 38 37 35 34 33 32 31 31 31 31 31 32 33 35 37 38 40 42 44 45 47 48 49 50 52 54 56 58 59 61 62 63 63 63 63 65 66 68 70 72 74 78 80 82 85 86 85 84 82 80 78 76 75 74 73 72 71 71 71 71 71 72 73 73 74 75 76 77 78 79 80 81 82 83
35 37 40 42 43 44 45 45 46 47 45 42 38 37 36 35 33 33 32 31 31 31 31 31 32 33 35 37 38 39 40 42 44 46 47 49 50 52 54 56 58 60 61 62 62 63 64 64 64 65 67 69 71 73 75 78 82 83 84 85 84 82 80 78 76 74 72 72 71 70 69 69 68 68 67 68 70 71 71 71 72 73 74 75 77 78 79 79
37 39 41 42 43 44 44 45 46 45 41 38 37 36 34 33 32 32 31 31 31 31 31 32 33 35 37 38 40 41 43 44 45 46 48 50 52 54 57 59 60 61 62 62 64 65 66 68 68 68 69 71 73 75 77 79 83 85 84 82 81 79 77 76 74 71 70 69 68 67 66 65 66 65 64 64 66 68 69 70 70 71 72 73 74 75 76 77
38 39 41 42 43 43 44 45 44 41 37 36 36 34 33 32 32 31 31 31 31 30 31 33 34 37 38 40 42 44 45 46 46 48 49 51 54 57 59 60 60 61 62 64 66 67 69 70 71 72 72 73 75 78 80 82 84 85 84 80 78 76 74 72 70 69 67 66 65 64 63 62 63 63 62 61 61 62 64 66 67 68 69 70 72 72 73 74
38 39 40 41 42 43 44 44 40 37 36 35 34 33 32 31 31 31 31 30 31 31 33 34 36 38 40 42 44 46 46 47 48 49 51 54 56 58 59 60 61 62 64 65 67 69 71 72 73 74 73 74 76 78 81 84 84 84 81 78 75 73 71 70 68 66 64 63 62 61 60 60 60 61 61 60 60 60 61 62 63 64 66 67 69 70 70 72
38 39 40 41 42 43 43 40 36 35 35 34 32 32 31 31 31 30 30 30 31 32 34 36 38 39 41 43 45 46 47 48 50 52 54 56 58 58 59 60 62 64 66 68 69 71 72 73 73 73 73 74 76 78 82 85 85 83 79 76 73 71 70 68 66 63 62 61 60 60 59 58 58 59 60 60 60 60 61 61 62 63 65 66 68 68 69 71
38 39 40 41 42 43 40 36 35 35 34 32 32 31 31 31 30 30 30 30 32 33 35 37 39 41 43 44 44 45 46 49 52 54 56 57 57 58 59 61 63 66 68 70 72 72 73 73 73 72 71 73 76 78 81 84 84 82 78 75 73 71 69 68 66 63 61 60 60 59 58 57 57 58 59 60 60 61 61 62 63 64 65 66 68 68 69 70
38 39 40 42 42 40 36 35 34 33 32 31 31 31 30 30 30 30 30 31 33 34 36 38 40 42 44 44 45 46 48 50 52 54 56 56 57 59 61 63 66 68 71 72 73 74 74 73 72 71 70 71 74 77 80 81 81 80 77 75 73 72 70 69 67 63 60 60 60 59 59 58 57 58 59 59 60 61 61 62 63 64 65 66 67 68 69 70
38 39 41 42 40 36 34 34 33 32 31 31 30 30 30 30 30 30 31 32 34 36 38 40 42 44 44 45 46 48 50 51 53 55 56 56 58 61 63 66 69 71 73 75 75 75 74 73 71 70 70 71 74 77 80 81 81 79 77 76 74 73 71 70 67 64 61 60 59 59 59 58 57 57 57 58 59 60 61 62 63 64 66 67 67 67 68 69
38 39 41 39 36 34 33 33 32 31 31 30 30 30 30 30 30 31 32 34 36 38 40 41 43 44 44 45 47 49 51 53 55 56 57 59 61 64 67 70 72 74 75 76 76 75 74 72 70 68 69 71 75 78 80 81 80 79 77 75 73 72 72 71 68 65 63 61 59 58 58 58 58 58 58 59 60 61 62 63 64 65 66 68 68 67 68 69
Wind_Direction
196 196 197 200 211 217 220 222 221 219 221 225 225 224 226 229 231 233 237 240 242 243 242 242 243 243 243 243 244 244 245 244 245 245 247 248 248 248 248 248 249 250 251 252 253 254 254 254 254 254 255 256 256 256 256 256 257 257 257 258 259 259 260 260 261 261 262 261 260 260 262 261 261 261 262 262 262 262 262 263 263 263 263 264 264 264 264 265
200 200 201 200 204 213 217 221 225 225 224 228 230 229 229 229 231 234 237 240 242 244 245 245 245 245 245 245 246 246 247 247 247 248 249 250 251 252 252 252 252 252 252 253 253 254 255 256 256 256 256 257 258 258 258 258 259 259 259 260 261 262 262 262 263 263 263 263 262 262 264 264 263 263 264 264 264 264 264 264 264 264 264 265 265 265 265 265
204 204 206 206 205 208 213 216 222 227 228 230 232 233 233 233 234 235 237 239 241 244 245 247 248 248 248 249 249 250 251 252 253 254 254 255 256 256 256 256 256 255 255 255 255 255 256 257 258 258 258 258 259 259 260 260 261 261 261 263 263 264 265 264 265 265 265 264 264 264 264 265 265 264 265 266 265 265 266 265 265 266 266 266 266 266 266 266
208 208 209 212 211 208 209 213 217 223 228 232 234 235 235 237 240 241 242 243 244 246 246 248 249 250 250 251 252 252 253 255 257 257 258 259 259 259 259 259 259 259 259 259 259 258 258 259 259 260 261 261 260 261 262 262 263 264 264 265 265 266 267 266 267 267 266 266 266 265 265 266 266 266 266 267 266 266 266 266 266 267 267 267 267 266 266 266
213 212 212 214 216 212 210 212 215 218 224 229 233 235 234 235 239 241 243 246 249 252 253 254 254 253 254 254 255 255 256 257 258 260 260 261 262 262 262 262 262 262 262 262 262 262 262 262 262 262 262 263 263 263 264 264 264 265 265 266 266 267 267 267 267 267 267 267 267 266 266 266 266 267 267 266 266 266 266 266 267 267 267 267 267 267 267 267
219 216 215 216 217 216 214 214 216 218 220 225 230 235 237 235 236 238 240 241 243 249 253 257 259 259 260 261 261 261 261 262 262 263 264 264 264 265 266 266 267 266 266 266 265 265 265 265 265 265 264 264 264 264 264 265 265 266 267 266 267 268 267 267 267 267 267 267 267 267 266 266 266 267 267 266 267 267 266 266 266 266 266 267 267 267 267 267
226 222 219 218 218 218 217 217 219 220 221 224 228 236 241 241 238 237 239 240 240 243 247 251 254 256 258 260 261 260 261 262 264 266 266 266 265 265 265 265 267 267 268 268 268 268 269 269 269 269 269 269 268 268 268 268 269 270 270 270 270 271 271 270 269 268 269 269 269 268 268 268 268 267 267 268 268 268 268 266 266 266 267 267 268 268 268 268
232 229 225 221 220 221 221 220 221 223 224 226 230 235 241 243 243 241 241 242 242 243 245 247 249 251 253 255 257 258 258 259 261 263 264 265 266 266 266 266 266 266 266 267 267 268 269 269 270 271 271 271 271 271 271 272 273 273 273 273 273 273 273 273 272 271 271 271 271 271 270 270 270 269 269 270 271 270 269 268 268 268 268 268 269 269 269 269
236 235 233 228 224 223 224 224 224 225 227 229 232 235 238 241 243 244 245 245 245 246 246 247 249 250 252 254 255 257 258 258 259 261 262 263 264 265 266 267 267 267 267 268 268 268 269 269 270 270 270 270 271 271 272 272 272 272 272 273 273 273 273 273 273 273 273 273 273 273 273 273 272 272 272 272 272 272 272 272 272 271 271 271 271 271 271 271
241 240 239 236 232 228 227 227 228 229 230 231 233 236 239 240 240 242 245 246 247 248 249 250 250 252 253 255 256 257 258 259 259 260 262 263 264 265 267 267 268 268 268 269 269 270 270 271 271 271 271 271 271 271 272 272 272 272 272 273 273 273 273 273 273 274 274 274 274 274 274 274 274 274 274 274 273 274 274 274 274 274 274 273 273 273 273 273
245 244 242 240 238 235 232 231 231 232 233 234 236 237 240 242 242 242 243 245 247 248 249 250 251 253 254 256 257 258 260 261 262 263 264 265 266 267 268 268 268 269 269 270 270 271 271 271 271 272 272 272 272 272 272 272 273 273 273 273 273 273 273 273 273 274 273 274 273 274 274 274 274 274 274 273 273 274 274 274 274 274 274 274 274 273 273 273
248 246 244 242 240 239 239 237 236 235 236 237 238 240 242 244 246 246 246 247 248 249 250 251 252 254 255 257 257 258 258 260 261 262 263 264 265 266 266 267 267 268 268 269 269 270 270 270 270 270 271 271 271 271 272 272 272 272 273 273 272 273 273 273 273 273 273 273 273 273 274 274 274 274 273 273 273 273 273 273 273 273 273 273 273 273 273 273
250 248 246 243 243 243 243 242 241 240 240 240 241 242 243 245 247 248 249 250 251 252 253 254 255 256 257 259 259 259 260 260 261 262 263 263 264 265 265 266 267 268 268 269 269 270 270 270 271 271 271 271 271 271 272 272 273 273 273 273 273 273 274 273 273 273 274 274 273 274 274 274 274 273 273 273 273 273 272 272 273 273 273 273 272 272 272 272
250 249 248 246 246 246 245 245 245 244 244 244 244 244 244 245 246 247 248 250 252 253 254 255 255 257 258 259 260 261 261 262 262 263 264 264 265 265 266 266 267 268 269 269 270 270 271 271 271 272 272 272 272 272 272 272 273 273 274 274 274 274 274 274 274 274 275 275 274 274 274 274 274 274 273 273 273 273 272 272 272 272 272 272 272 272 272 272
251 251 251 249 248 248 248 248 247 247 247 246 246 246 246 246 247 247 247 248 249 251 252 253 254 255 256 257 258 260 261 261 262 263 263 264 265 266 266 267 267 268 269 270 270 271 272 272 272 273 273 273 273 273 274 274 274 274 275 275 275 275 276 276 276 276 276 276 276 276 276 276 276 275 274 274 273 273 273 273 273 272 272 272 272 272 273 273
253 253 252 251 250 250 251 251 251 251 250 250 249 249 248 248 248 248 249 250 251 251 252 253 254 255 256 257 258 259 260 262 263 264 265 266 267 268 269 270 270 271 272 272 273 273 273 274 274 274 275 275 275 275 276 276 276 277 277 278 278 278 278 278 278 278 278 278 278 277 278 278 277 276 275 274 274 273 273 273 273 273 272 272 272 272 273 273
253 253 253 253 253 254 255 256 256 256 255 255 255 253 252 251 250 250 250 251 252 254 255 256 257 259 260 261 262 263 264 265 267 268 269 270 271 272 272 273 274 274 274 274 274 274 275 275 275 275 276 277 277 278 278 278 279 279 279 279 280 280 281 280 280 279 279 278 278 278 279 278 277 276 276 275 275 274 273 273 272 272 272 272 272 272 272 272
252 253 255 256 258 260 261 262 262 262 261 260 259 258 257 256 255 254 254 254 255 256 257 259 260 262 263 265 266 268 269 270 271 272 272 273 273 274 275 275 276 276 276 276 276 276 277 278 278 278 278 279 279 280 279 279 280 280 280 279 279 280 281 281 281 280 279 278 278 278 279 278 277 276 276 275 275 274 273 272 272 271 271 271 271 271 272 272
253 256 259 262 264 266 268 268 268 267 266 265 264 263 261 260 259 259 258 258 259 260 261 263 265 266 268 269 271 272 272 273 274 275 276 277 277 277 278 278 278 278 279 279 280 280 280 280 280 280 281 281 281 281 281 281 280 281 281 281 281 280 280 281 281 280 279 279 279 279 278 278 278 278 277 276 275 274 273 273 272 272 271 271 271 271 271 272
256 261 265 268 271 272 273 272 271 270 269 269 268 266 265 264 263 264 264 265 266 267 268 270 271 273 274 275 276 277 278 278 279 279 280 281 281 281 281 281 281 281 281 281 281 282 282 283 283 283 283 283 282 282 282 282 282 282 282 282 282 282 282 282 281 281 281 280 281 281 280 280 279 279 279 278 277 275 275 274 273 273 273 273 272 273 272 273
260 266 270 274 275 275 274 274 273 273 272 271 269 269 268 268 270 271 272 274 275 276 277 279 280 281 282 282 283 283 284 285 285 284 284 283 284 284 284 283 283 283 283 284 284 284 285 285 285 285 285 285 285 284 284 283 283 283 284 284 284 284 285 284 284 284 284 283 283 283 282 282 281 280 279 279 278 278 277 276 275 275 274 274 274 273 273 273
265 270 275 276 276 276 276 276 275 274 273 272 271 271 272 274 276 278 281 283 284 286 287 287 288 288 288 288 288 288 288 288 288 287 287 287 287 286 286 286 286 286 287 287 287 287 287 287 287 287 287 286 286 286 286 285 286 286 287 286 286 286 287 286 286 286 286 285 285 284 284 284 282 281 281 280 279 279 278 278 277 277 276 275 275 274 274 274
269 274 275 276 276 277 277 277 275 273 271 270 271 274 277 280 283 286 288 290 291 292 293 293 294 294 294 293 292 292 292 291 290 290 290 290 290 290 289 289 289 289 289 289 289 289 288 288 288 288 289 289 289 289 288 288 288 289 289 289 288 288 288 288 287 287 287 287 286 286 286 286 285 284 283 282 281 280 280 280 279 278 277 276 276 275 275 275
271 274 274 274 276 276 274 271 268 267 268 272 277 281 285 288 290 293 294 295 297 298 299 299 299 298 298 296 295 295 294 294 294 294 293 293 292 291 291 291 291 290 290 290 290 290 290 290 290 290 291 291 291 291 291 291 291 291 291 290 291 291 290 289 288 288 288 288 288 287 286 286 287 287 286 284 283 283 283 282 280 279 278 277 277 277 276 276
271 271 273 273 272 268 266 266 268 272 277 282 288 290 294 296 298 300 301 302 303 303 302 301 301 300 299 299 299 299 299 298 297 296 295 294 293 292 292 292 292 292 292 292 292 292 292 293 293 293 293 293 293 293 293 293 293 293 293 292 293 292 292 292 291 290 290 289 290 289 288 287 288 288 287 286 286 286 285 283 282 281 280 279 278 278 278 277
269 270 270 268 265 264 267 273 279 284 289 294 298 301 304 305 306 306 306 306 306 305 304 303 303 302 302 302 302 302 301 299 298 297 295 294 294 294 294 294 294 294 294 294 295 296 296 296 296 296 295 295 295 295 294 294 294 294 294 294 293 293 293 293 292 292 292 291 290 290 289 289 287 287 286 286 286 286 284 283 282 281 281 280 280 279 279 278
265 265 265 265 267 271 278 286 291 297 302 306 308 310 310 309 309 309 308 308 307 306 306 306 305 305 305 304 303 302 301 299 298 298 297 296 296 296 297 297 298 298 298 298 299 299 298 299 298 298 298 297 296 296 296 296 296 296 295 295 295 294 293 293 293 292 291 291 290 290 290 289 287 286 285 285 285 284 282 282 281 281 280 280 279 279 279 278
257 260 265 270 276 285 293 300 304 308 311 313 313 313 312 312 311 310 309 308 307 306 307 307 306 306 306 305 304 302 301 300 299 299 299 299 299 300 300 300 301 301 300 300 301 301 301 301 301 301 300 299 299 299 298 298 298 298 297 297 297 296 295 294 294 293 293 292 291 291 291 290 288 288 287 286 285 283 282 282 281 281 280 280 279 279 278 278
254 262 272 281 292 299 305 308 310 312 314 315 315 314 314 313 311 309 307 307 307 307 308 308 307 307 306 305 304 303 302 302 302 301 301 302 302 302 303 303 303 304 304 304 304 303 303 303 302 302 301 301 301 300 300 300 299 299 299 299 298 297 297 296 295 294 294 293 293 292 291 290 289 289 288 287 285 284 283 283 282 282 281 281 280 280 279 279
256 268 282 292 299 304 307 311 312 314 315 315 314 313 312 309 307 306 306 307 308 308 309 309 308 308 307 306 305 305 304 304 305 305 305 305 305 305 305 305 305 305 305 305 304 304 303 302 302 302 302 302 302 302 301 301 301 300 299 299 299 298 298 297 296 295 294 293 293 293 292 290 289 290 289 287 285 285 284 283 283 282 281 281 280 280 279 279
262 275 288 297 302 306 308 310 311 313 314 314 312 310 307 305 305 306 307 309 309 309 310 310 309 308 307 306 306 305 305 305 306 306 306 306 307 307 307 306 306 305 304 304 305 305 306 305 305 305 304 304 303 303 302 302 302 301 300 300 298 297 297 296 295 295 294 293 293 292 291 290 290 290 289 287 286 285 284 283 283 282 282 281 280 280 279 279
271 285 295 300 304 307 308 310 311 313 312 310 307 305 304 305 307 308 309 310 311 311 311 310 309 308 307 307 306 306 307 307 307 307 308 308 309 308 308 308 308 309 308 308 308 307 307 307 306 307 306 306 305 305 304 303 302 302 301 300 299 298 297 297 296 295 294 294 293 292 291 290 290 290 288 287 286 285 284 283 283 283 282 281 281 280 280 280
283 293 299 303 305 308 309 311 312 311 308 305 304 304 306 307 309 310 311 312 312 311 311 309 308 308 308 307 308 308 308 308 308 309 309 310 310 311 311 311 310 309 309 308 308 308 308 308 308 308 308 307 307 306 305 304 303 303 302 301 300 299 299 299 298 297 297 297 296 295 293 292 292 291 290 289 287 286 285 285 284 283 283 282 282 281 281 281
291 297 301 305 307 309 311 311 309 306 304 304 305 306 308 309 311 312 312 312 312 311 310 309 309 309 309 309 309 309 310 311 311 312 312 312 312 312 313 312 311 310 310 309 309 309 309 308 308 308 308 307 306 306 306 306 305 305 304 304 303 302 302 301 300 300 299 299 298 296 295 294 294 293 292 290 289 288 287 286 285 284 284 283 283 282 282 282
294 299 303 307 309 310 310 308 305 304 304 305 307 308 310 311 312 313 313 312 311 310 310 309 310 310 310 311 312 312 313 313 313 314 315 315 315 315 314 312 312 311 311 311 312 312 312 311 310 310 310 309 308 308 309 308 308 308 307 306 305 305 304 304 303 302 301 300 298 297 296 295 294 293 292 290 288 288 287 287 286 285 284 284 283 283 282 282
297 301 305 308 308 308 306 304 303 304 306 307 308 310 312 312 313 313 312 311 311 310 310 311 311 311 312 313 313 314 314 314 315 317 317 318 316 315 313 312 312 312 312 313 313 314 313 312 312 312 312 312 312 312 312 311 310 310 309 308 307 306 306 305 304 303 302 301 299 298 296 295 294 293 291 289 288 288 287 286 286 285 285 284 284 283 283 282
298 302 306 306 305 304 303 303 304 306 307 309 310 312 312 313 313 312 312 311 311 311 311 312 312 312 313 313 314 314 315 317 318 319 318 317 315 314 314 314 314 314 314 314 314 314 314 314 314 314 314 314 314 313 313 312 311 311 310 310 309 308 307 306 306 305 303 302 301 299 298 297 296 294 291 289 289 288 287 287 286 286 285 285 284 284 283 283
301 304 304 303 302 302 303 304 306 307 309 310 311 312 313 313 313 312 312 312 312 312 312 313 313 314 315 316 317 318 319 320 321 321 319 318 316 315 315 315 315 316 316 316 316 316 317 317 316 315 315 315 314 313 313 312 312 312 311 311 310 309 309 308 307 306 304 302 301 299 298 298 297 294 292 291 290 289 288 288 287 286 286 285 285 284 284 284
301 301 300 301 301 303 304 306 307 308 309 310 312 313 313 314 313 313 313 313 314 314 314 315 316 316 317 318 319 322 323 323 322 321 319 318 317 317 317 318 318 319 319 319 319 319 319 319 318 317 316 316 315 314 314 313 313 313 313 313 312 312 311 310 309 308 306 305 303 301 300 299 297 295 294 293 291 290 289 288 288 287 287 286 286 285 285 284
298 298 299 301 303 304 306 307 308 309 310 311 313 314 314 314 314 314 314 315 315 315 316 316 318 319 320 322 324 325 326 324 322 321 319 319 319 319 320 321 321 321 322 322 322 321 321 321 319 318 317 317 317 317 316 316 316 316 315 315 315 314 313 312 311 310 309 307 306 304 303 301 298 297 296 295 293 292 290 289 289 288 287 287 287 286 286 285
297 299 301 303 304 306 307 307 308 310 311 313 314 315 315 315 315 315 316 316 316 316 317 318 320 321 323 325 327 326 326 324 322 321 320 320 321 322 322 323 324 324 324 324 323 322 322 321 320 320 319 319 320 320 319 319 319 319 318 317 317 316 315 314 314 312 311 309 308 307 305 302 299 299 298 296 295 294 293 292 291 290 289 288 288 287 287 287
298 301 302 304 305 306 307 308 309 311 313 315 315 315 315 315 316 317 317 317 317 318 319 320 322 324 326 327 328 327 325 324 322 322 322 323 324 325 325 326 327 326 325 324 323 322 322 322 322 322 322 322 321 321 321 320 321 320 320 320 319 319 318 317 316 314 312 310 309 308 306 303 301 300 299 297 296 295 295 294 293 292 291 290 290 289 289 289
299 302 303 304 305 306 307 309 311 313 315 315 315 315 316 317 317 317 317 318 319 320 321 323 325 327 329 329 328 327 325 323 323 324 325 326 327 328 329 328 328 326 325 324 324 324 324 324 325 325 324 324 324 323 323 322 322 322 322 321 321 320 319 318 317 315 313 311 310 309 307 305 302 301 300 298 297 296 295 294 293 293 292 292 291 291 290 290
300 302 304 304 305 307 309 311 313 315 316 316 315 316 317 318 318 318 318 319 321 322 324 326 329 330 330 329 327 325 324 325 326 327 328 328 329 330 329 328 327 326 325 325 325 325 325 325 326 326 325 325 325 325 325 324 324 325 324 323 322 321 320 319 318 316 314 313 311 310 308 306 304 303 302 300 299 298 297 296 295 294 294 294 293 293 293 293
301 303 304 305 306 309 311 313 315 316 316 316 316 317 318 318 318 319 320 321 322 325 327 329 331 331 329 328 327 327 328 329 329 330 330 331 331 330 329 328 327 327 327 327 326 326 326 326 326 326 326 326 327 326 327 327 327 327 326 325 324 322 321 320 319 318 316 314 313 311 310 309 307 306 304 303 302 301 300 299 299 298 297 297 296 296 296 295
302 303 304 306 308 311 313 315 316 316 316 317 318 318 319 319 320 320 321 323 325 328 331 331 331 330 329 329 329 330 330 331 331 332 332 332 331 329 328 328 328 328 328 328 328 328 327 327 326 326 326 327 328 328 329 329 329 329 328 327 326 324 323 322 321 320 319 317 315 314 313 312 310 309 308 306 304 303 302 302 301 301 300 299 298 298 297 297
303 304 306 308 311 313 315 316 316 316 317 319 319 319 320 320 321 322 324 326 329 331 332 332 331 330 330 331 331 331 331 331 332 333 332 331 330 329 329 329 329 330 330 330 330 330 329 328 327 327 327 328 329 330 330 331 331 331 330 329 328 327 326 325 324 323 322 320 318 317 317 316 314 313 312 311 309 307 306 304 303 302 302 301 300 300 300 300
304 306 308 310 313 315 316 316 317 318 319 320 320 320 320 321 322 324 326 329 331 333 333 332 331 331 331 332 332 332 332 332 333 332 331 330 330 329 330 330 331 331 332 332 331 331 330 329 328 327 327 328 330 331 332 332 333 333 332 332 331 331 329 328 328 328 327 324 323 322 321 320 319 317 315 314 313 312 311 309 308 308 307 306 305 305 305 305
306 308 310 313 315 317 317 317 319 320 321 320 321 321 321 323 324 326 328 330 332 333 332 331 331 332 332 332 332 333 333 333 332 331 330 329 329 330 330 331 332 332 332 332 332 331 330 329 328 328 328 330 331 333 333 334 335 335 335 335 335 334 333 332 332 333 332 329 327 326 325 324 323 321 319 318 317 316 315 314 313 312 311 310 309 309 308 308
308 310 313 316 317 318 318 319 320 321 321 321 321 322 323 324 326 327 330 332 332 332 332 332 332 332 333 332 333 333 333 332 331 329 328 329 329 330 331 331 332 332 333 332 332 331 330 330 329 329 330 331 332 333 334 336 337 338 338 339 339 339 338 336 337 338 336 333 331 330 329 328 327 325 323 322 321 319 318 317 316 315 313 312 312 312 312 311
310 313 315 318 318 318 319 321 322 321 322 322 323 324 324 325 326 328 330 332 333 333 333 333 333 333 333 333 334 334 332 331 329 328 328 328 329 330 331 332 332 332 332 332 331 331 331 330 331 331 331 333 334 335 337 339 340 341 342 343 343 343 341 339 339 341 339 337 335 334 332 331 330 328 326 325 323 322 321 320 319 318 317 316 316 316 315 314
312 315 318 318 318 319 321 322 322 323 323 323 324 324 324 325 327 330 331 333 334 334 333 333 333 333 334 334 334 332 331 329 329 328 329 329 330 331 332 332 332 332 332 332 332 331 331 331 332 332 333 334 336 337 339 341 343 345 345 345 346 345 343 341 342 344 342 340 339 337 335 335 333 332 331 329 328 326 325 324 322 321 320 319 319 319 318 317
Height
10715 10717 10718 10719 10720 10720 10721 10723 10724 10725 10727 10727 10729 10730 10731 10732 10733 10734 10734 10735 10736 10737 10738 10738 10739 10740 10740 10741 10741 10741 10741 10741 10741 10741 10741 10741 10741 10741 10740 10740 10740 10739 10739 10738 10738 10738 10737 10737 10737 10736 10736 10735 10735 10734 10733 10733 10732 10732 10731 10732 10729 10723 10725 10728 10726 10725 10723 10723 10726 10723 10716 10717 10721 10715 10711 10713 10713 10711 10710 10712 10709 10705 10703 10702 10703 10703 10701 10699
10713 10715 10716 10717 10718 10719 10720 10721 10722 10723 10724 10725 10726 10727 10728 10730 10730 10731 10732 10733 10733 10734 10735 10736 10736 10737 10737 10737 10738 10738 10738 10738 10738 10738 10737 10737 10737 10737 10737 10736 10736 10735 10735 10734 10733 10733 10733 10732 10731 10731 10731 10730 10730 10729 10728 10728 10727 10726 10727 10726 10721 10718 10721 10722 10720 10718 10716 10713 10717 10719 10711 10707 10713 10709 10703 10706 10707 10704 10703 10705 10700 10696 10696 10694 10693 10693 10692 10691
10711 10712 10713 10715 10716 10718 10718 10719 10720 10721 10722 10723 10723 10724 10725 10727 10727 10728 10729 10730 10731 10731 10732 10733 10733 10733 10734 10734 10734 10735 10735 10735 10734 10734 10733 10733 10733 10733 10732 10732 10731 10731 10730 10729 10729 10728 10728 10727 10727 10726 10726 10725 10725 10724 10722 10723 10721 10719 10722 10719 10714 10714 10714 10715 10715 10710 10706 10706 10707 10711 10705 10699 10703 10701 10697 10697 10697 10696 10695 10694 10690 10689 10689 10685 10683 10683 10683 10682
10709 10710 10711 10713 10714 10716 10717 10718 10719 10719 10719 10720 10721 10722 10723 10724 10725 10726 10727 10727 10728 10728 10729 10729 10729 10730 10730 10730 10731 10731 10731 10731 10730 10729 10729 10729 10729 10728 10728 10727 10727 10726 10725 10724 10724 10723 10723 10722 10722 10721 10721 10719 10719 10719 10716 10717 10716 10712 10716 10713 10707 10710 10707 10706 10709 10701 10697 10699 10698 10700 10698 10693 10691 10692 10692 10688 10685 10688 10686 10682 10682 10682 10679 10675 10674 10674 10673 10672
10707 10708 10709 10711 10712 10714 10715 10716 10717 10717 10717 10717 10718 10719 10720 10722 10722 10723 10724 10725 10725 10725 10725 10726 10726 10726 10726 10726 10726 10727 10727 10727 10726 10725 10725 10725 10724 10723 10723 10722 10721 10720 10720 10719 10719 10718 10717 10716 10716 10715 10715 10713 10713 10713 10710 10709 10709 10705 10708 10705 10700 10702 10699 10699 10700 10692 10690 10691 10689 10690 10689 10685 10683 10684 10684 10677 10673 10677 10677 10675 10672 10672 10669 10665 10663 10664 10662 10661
10705 10706 10708 10709 10710 10711 10713 10714 10715 10715 10715 10715 10716 10716 10717 10719 10720 10721 10721 10722 10722 10722 10722 10722 10722 10723 10723 10722 10722 10723 10723 10722 10721 10721 10721 10720 10719 10719 10718 10717 10716 10715 10714 10714 10713 10712 10711 10710 10710 10709 10708 10707 10705 10706 10704 10702 10702 10698 10699 10697 10694 10694 10690 10692 10692 10684 10682 10681 10679 10679 10677 10676 10676 10677 10672 10666 10664 10665 10667 10667 10662 10660 10660 10656 10653 10653 10651 10650
10702 10704 10705 10706 10708 10709 10710 10712 10712 10713 10713 10713 10713 10714 10715 10716 10717 10718 10718 10719 10719 10720 10720 10720 10720 10720 10720 10719 10719 10719 10719 10718 10718 10718 10717 10716 10715 10714 10713 10712 10711 10711 10709 10708 10707 10706 10705 10704 10703 10702 10701 10700 10698 10698 10696 10695 10694 10692 10690 10687 10687 10686 10681 10682 10682 10677 10674 10671 10669 10668 10667 10667 10667 10667 10662 10656 10656 10654 10653 10653 10651 10650 10649 10647 10644 10642 10640 10638
10700 10701 10703 10704 10705 10706 10707 10708 10709 10710 10710 10711 10711 10712 10712 10713 10714 10715 10716 10716 10716 10717 10717 10717 10717 10717 10716 10716 10716 10716 10715 10715 10715 10713 10712 10711 10710 10709 10708 10707 10706 10705 10704 10703 10702 10700 10699 10698 10697 10696 10694 10693 10691 10690 10688 10686 10686 10685 10681 10677 10679 10678 10673 10672 10670 10668 10667 10662 10660 10657 10656 10658 10655 10655 10654 10650 10647 10643 10639 10639 10641 10640 10638 10636 10634 10631 10628 10626
10698 10699 10700 10701 10702 10703 10704 10705 10706 10707 10708 10708 10709 10710 10710 10711 10712 10712 10713 10713 10714 10714 10714 10714 10714 10713 10713 10712 10712 10712 10710 10710 10710 10708 10707 10706 10705 10704 10703 10702 10701 10699 10698 10697 10695 10694 10693 10691 10690 10689 10687 10686 10684 10683 10681 10678 10678 10677 10674 10670 10670 10668 10666 10664 10659 10659 10657 10652 10651 10646 10646 10649 10643 10642 10646 10644 10636 10630 10628 10628 10628 10627 10625 10624 10622 10620 10617 10615
10696 10697 10697 10699 10700 10701 10702 10703 10704 10705 10705 10706 10707 10707 10708 10708 10709 10709 10710 10710 10711 10711 10711 10710 10710 10709 10709 10708 10708 10707 10705 10705 10705 10703 10703 10701 10700 10699 10698 10697 10695 10694 10692 10691 10689 10687 10686 10684 10682 10681 10680 10678 10676 10674 10672 10670 10668 10668 10666 10663 10660 10658 10658 10655 10650 10650 10647 10643 10642 10635 10636 10638 10632 10631 10637 10632 10624 10620 10618 10616 10614 10613 10612 10611 10609 10608 10605 10602
10694 10695 10695 10696 10697 10698 10699 10700 10701 10702 10703 10703 10704 10704 10705 10705 10706 10706 10707 10707 10707 10707 10707 10706 10705 10705 10704 10704 10704 10703 10701 10701 10700 10699 10698 10696 10695 10694 10692 10691 10689 10688 10686 10685 10683 10681 10679 10677 10675 10674 10672 10670 10669 10666 10664 10662 10659 10657 10657 10656 10651 10648 10649 10646 10642 10641 10635 10633 10632 10624 10624 10628 10624 10623 10623 10619 10615 10612 10608 10604 10602 10600 10599 10597 10596 10594 10592 10590
10692 10693 10694 10694 10695 10695 10696 10697 10698 10699 10700 10700 10701 10701 10702 10702 10702 10703 10703 10704 10704 10703 10702 10702 10701 10701 10700 10699 10699 10698 10697 10696 10695 10694 10693 10691 10690 10688 10687 10685 10683 10682 10680 10678 10676 10674 10672 10670 10668 10666 10664 10662 10661 10658 10655 10652 10650 10648 10646 10646 10642 10638 10638 10637 10633 10629 10625 10624 10620 10613 10612 10616 10617 10613 10608 10607 10606 10602 10596 10593 10590 10588 10585 10584 10582 10580 10578 10576
10690 10691 10692 10692 10693 10693 10694 10694 10695 10696 10696 10697 10697 10698 10698 10698 10699 10699 10700 10700 10699 10699 10698 10698 10697 10696 10696 10695 10693 10693 10692 10691 10690 10689 10687 10686 10684 10683 10681 10679 10677 10675 10673 10671 10669 10667 10665 10663 10661 10658 10656 10654 10652 10650 10647 10643 10640 10638 10635 10634 10631 10627 10627 10627 10622 10616 10614 10613 10608 10602 10599 10603 10607 10602 10595 10595 10593 10589 10584 10580 10577 10574 10572 10570 10568 10566 10563 10561
10689 10690 10690 10691 10691 10691 10691 10692 10692 10692 10693 10693 10694 10694 10694 10695 10695 10696 10696 10695 10695 10694 10694 10693 10692 10691 10691 10690 10688 10687 10687 10685 10685 10683 10682 10680 10678 10677 10675 10673 10670 10668 10666 10664 10662 10659 10657 10655 10653 10650 10646 10645 10643 10640 10638 10635 10631 10627 10625 10624 10619 10615 10615 10615 10611 10606 10603 10598 10594 10591 10587 10590 10595 10589 10583 10581 10579 10575 10571 10568 10564 10561 10558 10556 10554 10551 10549 10546
10687 10688 10689 10689 10689 10689 10689 10689 10690 10690 10690 10690 10690 10690 10691 10691 10691 10692 10692 10691 10691 10690 10689 10689 10687 10686 10686 10685 10684 10682 10681 10680 10679 10678 10676 10674 10672 10670 10668 10666 10664 10661 10659 10657 10654 10651 10649 10646 10644 10641 10637 10634 10633 10630 10627 10625 10622 10617 10615 10613 10608 10604 10603 10602 10600 10596 10592 10586 10580 10577 10574 10579 10581 10575 10571 10568 10565 10561 10557 10554 10551 10548 10545 10542 10540 10537 10535 10533
10686 10687 10687 10687 10687 10687 10687 10687 10687 10687 10687 10687 10687 10687 10687 10688 10688 10687 10687 10687 10686 10686 10685 10684 10683 10682 10681 10680 10679 10677 10676 10674 10673 10671 10670 10668 10666 10663 10661 10659 10656 10655 10652 10649 10647 10644 10641 10638 10635 10633 10628 10625 10623 10620 10617 10614 10611 10607 10604 10601 10596 10592 10591 10591 10588 10583 10580 10575 10568 10563 10563 10567 10566 10559 10556 10554 10552 10549 10545 10542 10538 10535 10532 10529 10527 10524 10522 10520
10685 10685 10685 10685 10685 10685 10684 10685 10685 10684 10684 10684 10684 10684 10684 10684 10684 10684 10683 10683 10682 10681 10680 10679 10678 10677 10676 10675 10673 10672 10671 10669 10667 10665 10664 10662 10659 10657 10654 10652 10649 10647 10644 10641 10638 10636 10632 10630 10627 10624 10620 10616 10613 10610 10607 10604 10600 10596 10595 10592 10586 10580 10577 10576 10577 10573 10567 10562 10556 10553 10554 10555 10551 10545 10542 10541 10540 10537 10533 10530 10526 10523 10520 10517 10514 10512 10510 10508
10683 10683 10683 10683 10683 10683 10682 10682 10682 10682 10682 10681 10681 10681 10680 10680 10680 10680 10679 10679 10678 10677 10676 10675 10674 10673 10671 10670 10669 10667 10666 10664 10662 10659 10657 10655 10653 10651 10648 10646 10642 10639 10637 10633 10630 10628 10625 10621 10618 10614 10611 10608 10604 10600 10597 10595 10590 10584 10583 10582 10578 10573 10566 10563 10563 10560 10553 10549 10546 10545 10544 10541 10536 10532 10530 10529 10528 10523 10520 10517 10514 10512 10508 10505 10503 10500 10498 10496
10682 10681 10681 10681 10681 10681 10681 10680 10680 10679 10679 10679 10678 10678 10677 10677 10676 10676 10675 10675 10674 10673 10672 10671 10670 10669 10667 10666 10664 10662 10661 10659 10657 10654 10652 10649 10647 10644 10641 10638 10636 10632 10630 10626 10622 10619 10617 10614 10609 10604 10602 10600 10595 10591 10586 10583 10580 10575 10571 10569 10567 10563 10558 10555 10551 10546 10541 10538 10536 10535 10534 10530 10525 10520 10518 10517 10516 10511 10508 10505 10502 10499 10497 10494 10492 10489 10487 10484
10680 10680 10680 10679 10679 10679 10678 10678 10677 10677 10676 10676 10675 10675 10674 10673 10673 10672 10671 10671 10670 10669 10669 10667 10666 10665 10663 10661 10659 10657 10655 10653 10652 10649 10646 10643 10640 10637 10634 10631 10629 10625 10621 10619 10615 10610 10608 10605 10600 10595 10592 10589 10585 10581 10577 10572 10568 10565 10562 10558 10554 10551 10549 10546 10540 10535 10532 10528 10527 10524 10522 10521 10517 10511 10508 10505 10503 10500 10497 10495 10492 10489 10486 10484 10481 10479 10476 10473
10678 10678 10678 10678 10677 10677 10676 10675 10675 10674 10673 10673 10672 10672 10671 10670 10670 10669 10668 10668 10667 10666 10665 10664 10662 10661 10659 10657 10655 10653 10651 10648 10646 10643 10640 10638 10634 10631 10627 10623 10621 10617 10612 10609 10607 10603 10600 10596 10590 10586 10583 10579 10575 10572 10567 10563 10559 10556 10553 10549 10544 10541 10539 10536 10531 10527 10521 10518 10520 10516 10511 10511 10507 10502 10499 10496 10493 10490 10487 10485 10482 10479 10477 10474 10471 10468 10465 10461
10677 10677 10676 10676 10675 10674 10674 10673 10672 10672 10671 10670 10670 10669 10669 10668 10668 10667 10666 10665 10664 10663 10661 10660 10658 10657 10655 10652 10650 10648 10646 10643 10640 10637 10633 10631 10627 10623 10620 10616 10612 10609 10605 10600 10597 10593 10591 10588 10582 10577 10575 10571 10567 10563 10559 10555 10552 10549 10546 10540 10536 10534 10530 10526 10523 10519 10512 10509 10510 10507 10502 10501 10497 10493 10491 10487 10484 10480 10478 10476 10473 10470 10467 10463 10460 10456 10453 10450
10675 10675 10674 10674 10673 10672 10671 10671 10670 10670 10669 10669 10668 10668 10667 10666 10665 10664 10664 10662 10661 10660 10658 10657 10655 10652 10650 10648 10645 10643 10640 10637 10634 10630 10626 10623 10619 10615 10612 10608 10604 10601 10597 10593 10589 10585 10582 10580 10575 10570 10567 10563 10560 10556 10551 10548 10545 10542 10538 10532 10528 10526 10522 10519 10516 10511 10506 10501 10500 10500 10496 10491 10488 10484 10482 10478 10474 10471 10469 10467 10464 10460 10456 10452 10449 10445 10442 10438
10674 10673 10673 10672 10671 10670 10670 10669 10669 10669 10668 10667 10667 10666 10665 10664 10663 10662 10661 10660 10658 10657 10655 10653 10651 10648 10646 10642 10639 10637 10634 10630 10627 10623 10619 10616 10611 10607 10604 10600 10597 10593 10589 10586 10583 10578 10575 10572 10569 10565 10560 10556 10553 10549 10544 10541 10538 10535 10532 10526 10521 10519 10515 10511 10508 10505 10501 10494 10491 10491 10489 10486 10482 10475 10472 10468 10465 10463 10461 10457 10453 10449 10445 10441 10438 10435 10431 10428
10672 10672 10671 10670 10670 10669 10669 10668 10668 10667 10666 10666 10665 10664 10663 10662 10661 10660 10658 10657 10655 10653 10651 10648 10646 10643 10641 10637 10633 10630 10627 10623 10619 10616 10612 10608 10604 10600 10596 10593 10590 10587 10583 10580 10576 10573 10569 10565 10562 10558 10554 10551 10547 10543 10539 10535 10531 10528 10525 10520 10516 10512 10507 10503 10500 10497 10494 10489 10485 10482 10479 10480 10478 10469 10463 10459 10457 10454 10451 10446 10442 10438 10435 10431 10428 10424 10421 10417
10671 10670 10670 10669 10669 10668 10668 10667 10666 10666 10665 10664 10663 10662 10661 10660 10659 10657 10655 10654 10651 10649 10646 10643 10640 10637 10634 10631 10627 10623 10620 10616 10612 10608 10604 10600 10597 10594 10590 10587 10584 10581 10577 10574 10570 10567 10563 10559 10556 10552 10549 10545 10542 10537 10533 10530 10526 10522 10519 10515 10510 10506 10501 10497 10492 10489 10485 10481 10478 10475 10470 10469 10470 10465 10456 10452 10450 10445 10440 10435 10431 10428 10424 10421 10417 10414 10410 10406
10669 10669 10669 10668 10668 10667 10666 10666 10665 10664 10664 10662 10661 10660 10659 10657 10656 10654 10652 10650 10647 10644 10641 10638 10635 10631 10627 10625 10621 10617 10613 10608 10604 10601 10597 10594 10591 10588 10585 10581 10577 10574 10571 10568 10565 10561 10558 10554 10551 10547 10543 10539 10536 10532 10528 10524 10520 10516 10512 10508 10504 10499 10495 10490 10486 10482 10478 10473 10469 10468 10463 10457 10458 10459 10451 10446 10442 10435 10430 10425 10421 10418 10414 10410 10407 10403 10399 10395
10668 10668 10668 10667 10666 10666 10665 10664 10663 10663 10662 10660 10659 10658 10656 10654 10652 10651 10648 10646 10642 10639 10636 10633 10629 10625 10621 10618 10614 10610 10606 10602 10598 10595 10592 10589 10585 10582 10579 10575 10572 10569 10565 10563 10560 10556 10553 10549 10545 10542 10538 10533 10529 10526 10522 10518 10514 10509 10505 10501 10496 10492 10487 10483 10478 10473 10469 10465 10461 10459 10455 10446 10444 10448 10443 10437 10432 10425 10420 10416 10411 10407 10403 10400 10396 10392 10388 10384
10667 10667 10667 10666 10665 10664 10664 10663 10662 10661 10659 10658 10657 10655 10653 10651 10649 10647 10644 10642 10638 10634 10631 10628 10624 10620 10615 10611 10606 10602 10599 10596 10593 10589 10586 10583 10580 10577 10574 10570 10567 10564 10560 10557 10555 10551 10548 10545 10541 10536 10532 10528 10524 10520 10516 10512 10508 10503 10499 10494 10489 10483 10479 10475 10470 10466 10460 10456 10453 10449 10445 10436 10432 10437 10434 10425 10420 10414 10408 10404 10400 10397 10392 10388 10384 10380 10376 10371
10666 10666 10665 10665 10664 10663 10662 10661 10660 10658 10657 10655 10654 10652 10650 10647 10645 10643 10639 10637 10633 10629 10626 10622 10618 10614 10609 10605 10601 10597 10594 10590 10587 10584 10580 10577 10575 10572 10569 10566 10563 10560 10556 10552 10549 10546 10542 10539 10536 10532 10527 10523 10518 10514 10510 10505 10501 10497 10492 10489 10483 10476 10472 10466 10460 10456 10450 10446 10445 10439 10434 10426 10420 10425 10423 10413 10408 10403 10397 10392 10388 10385 10381 10376 10372 10367 10362 10358
10665 10665 10664 10663 10662 10661 10660 10659 10658 10656 10655 10653 10651 10649 10646 10644 10641 10638 10635 10632 10628 10624 10620 10616 10612 10608 10604 10600 10596 10593 10589 10586 10583 10580 10576 10573 10570 10568 10565 10562 10559 10556 10553 10549 10545 10542 10537 10533 10529 10525 10521 10516 10512 10508 10504 10499 10494 10489 10484 10480 10477 10470 10466 10460 10453 10448 10441 10436 10436 10431 10423 10416 10411 10412 10410 10401 10395 10391 10385 10380 10376 10372 10368 10363 10358 10353 10348 10344
10664 10664 10663 10662 10661 10660 10658 10657 10655 10654 10652 10650 10648 10645 10643 10640 10637 10634 10630 10627 10623 10619 10615 10611 10606 10602 10599 10595 10592 10589 10585 10582 10579 10576 10573 10569 10566 10563 10561 10559 10555 10552 10548 10543 10540 10536 10532 10528 10524 10520 10515 10509 10506 10501 10496 10492 10488 10483 10477 10471 10467 10462 10458 10453 10445 10439 10433 10427 10425 10421 10412 10406 10403 10401 10395 10389 10383 10377 10373 10369 10364 10359 10354 10349 10344 10339 10334 10329
10663 10662 10661 10660 10659 10658 10656 10655 10653 10651 10649 10647 10645 10642 10639 10635 10632 10629 10625 10621 10618 10613 10609 10605 10602 10598 10595 10591 10588 10585 10581 10578 10575 10573 10570 10566 10563 10559 10556 10554 10551 10548 10545 10541 10536 10531 10527 10522 10518 10514 10510 10504 10499 10495 10489 10485 10480 10475 10470 10463 10457 10452 10449 10445 10436 10429 10424 10416 10412 10409 10400 10394 10392 10387 10380 10373 10366 10361 10359 10355 10350 10345 10339 10334 10329 10324 10320 10315
10661 10660 10659 10658 10657 10656 10654 10652 10650 10648 10646 10643 10641 10638 10634 10631 10627 10624 10620 10616 10612 10608 10604 10600 10597 10593 10590 10587 10584 10581 10578 10574 10571 10568 10566 10564 10561 10557 10553 10549 10546 10542 10539 10536 10531 10527 10522 10518 10513 10508 10504 10499 10493 10488 10483 10477 10472 10467 10461 10455 10448 10441 10437 10435 10428 10420 10415 10407 10399 10394 10388 10382 10379 10375 10368 10358 10349 10344 10342 10338 10334 10329 10323 10319 10314 10309 10305 10299
10659 10659 10658 10656 10655 10653 10651 10650 10647 10645 10643 10640 10637 10633 10630 10627 10623 10619 10615 10611 10607 10603 10600 10596 10593 10589 10586 10583 10580 10577 10574 10571 10568 10565 10562 10559 10556 10553 10549 10545 10541 10537 10533 10529 10525 10521 10514 10509 10506 10501 10497 10492 10486 10481 10476 10469 10463 10458 10452 10446 10439 10431 10425 10421 10416 10408 10403 10398 10389 10380 10376 10371 10366 10364 10357 10344 10334 10331 10327 10322 10317 10312 10308 10304 10299 10294 10289 10283
10658 10657 10656 10654 10652 10651 10649 10647 10644 10642 10639 10636 10633 10629 10626 10622 10618 10615 10610 10606 10603 10599 10596 10592 10589 10586 10583 10580 10577 10574 10571 10569 10566 10563 10559 10556 10552 10549 10545 10541 10537 10533 10528 10524 10520 10516 10511 10503 10498 10494 10489 10484 10478 10472 10468 10460 10453 10448 10443 10436 10429 10422 10415 10409 10405 10398 10388 10384 10376 10366 10361 10357 10353 10351 10344 10331 10322 10318 10313 10308 10302 10296 10293 10288 10283 10278 10273 10268
10656 10655 10653 10652 10650 10648 10646 10643 10641 10638 10635 10632 10628 10625 10621 10618 10614 10610 10606 10602 10599 10595 10592 10589 10586 10583 10580 10578 10575 10572 10569 10565 10563 10560 10557 10553 10549 10545 10541 10536 10532 10528 10523 10519 10514 10511 10508 10500 10492 10488 10483 10477 10470 10464 10460 10453 10445 10438 10433 10427 10418 10412 10405 10395 10391 10387 10378 10370 10363 10352 10343 10339 10338 10336 10328 10318 10311 10305 10300 10294 10289 10283 10278 10273 10268 10263 10257 10252
10654 10652 10651 10649 10647 10645 10642 10640 10637 10634 10631 10627 10624 10621 10617 10613 10609 10605 10602 10598 10595 10591 10589 10586 10583 10580 10577 10575 10572 10569 10566 10562 10559 10556 10552 10549 10545 10541 10537 10532 10527 10523 10518 10514 10509 10504 10502 10496 10488 10482 10477 10472 10465 10458 10452 10446 10439 10430 10423 10417 10409 10402 10396 10385 10376 10372 10366 10359 10352 10343 10332 10324 10322 10317 10311 10306 10299 10292 10286 10280 10275 10270 10264 10259 10254 10249 10243 10238
10652 10650 10648 10646 10644 10642 10639 10636 10633 10630 10627 10624 10620 10616 10613 10609 10605 10601 10598 10594 10591 10588 10585 10582 10580 10577 10575 10572 10569 10566 10563 10559 10555 10552 10548 10545 10541 10536 10532 10527 10522 10518 10512 10508 10503 10498 10494 10490 10483 10475 10469 10464 10459 10451 10444 10437 10431 10422 10414 10407 10398 10389 10383 10375 10364 10356 10350 10344 10338 10332 10325 10315 10307 10301 10296 10293 10286 10280 10274 10268 10262 10256 10250 10245 10240 10235 10230 10224
10649 10648 10646 10643 10641 10638 10635 10633 10630 10626 10623 10620 10616 10612 10608 10604 10601 10598 10594 10591 10588 10585 10582 10580 10577 10575 10572 10569 10566 10563 10560 10556 10552 10548 10544 10540 10537 10532 10527 10522 10517 10512 10507 10502 10497 10492 10486 10482 10477 10470 10461 10454 10449 10442 10434 10426 10419 10411 10403 10397 10388 10378 10369 10362 10353 10343 10335 10329 10322 10317 10314 10304 10293 10287 10284 10278 10271 10266 10262 10257 10251 10245 10238 10232 10227 10221 10216 10211
10647 10645 10643 10640 10638 10635 10632 10629 10626 10623 10619 10615 10612 10608 10604 10601 10597 10594 10591 10588 10585 10582 10580 10577 10575 10572 10569 10566 10563 10559 10556 10553 10548 10544 10540 10536 10532 10528 10523 10518 10513 10507 10502 10497 10492 10487 10481 10475 10469 10463 10456 10447 10440 10433 10424 10415 10408 10399 10389 10383 10377 10367 10358 10350 10342 10333 10323 10316 10309 10304 10301 10293 10281 10275 10271 10264 10257 10252 10247 10243 10238 10233 10227 10221 10215 10209 10204 10199
10644 10642 10640 10637 10634 10632 10629 10625 10622 10619 10615 10611 10607 10604 10600 10597 10594 10591 10588 10585 10583 10580 10577 10575 10572 10570 10566 10563 10560 10556 10552 10549 10545 10540 10536 10531 10527 10522 10518 10513 10508 10502 10497 10492 10486 10481 10476 10470 10462 10455 10449 10442 10434 10427 10418 10408 10401 10392 10378 10369 10362 10353 10344 10337 10330 10322 10313 10304 10298 10292 10288 10281 10272 10266 10261 10253 10246 10241 10236 10230 10224 10219 10214 10209 10203 10198 10192 10187
10642 10639 10637 10634 10631 10628 10625 10622 10618 10615 10611 10607 10604 10600 10597 10594 10591 10588 10585 10583 10580 10578 10575 10573 10570 10567 10564 10560 10557 10554 10550 10545 10541 10536 10532 10527 10522 10517 10512 10507 10502 10497 10492 10486 10479 10474 10468 10463 10458 10450 10442 10435 10427 10420 10412 10401 10392 10386 10374 10361 10351 10342 10333 10325 10318 10311 10303 10294 10287 10281 10275 10269 10262 10256 10251 10244 10236 10231 10226 10220 10214 10208 10203 10197 10192 10186 10181 10176
10639 10636 10633 10631 10628 10625 10621 10618 10615 10611 10607 10604 10600 10597 10594 10591 10588 10586 10583 10580 10578 10575 10573 10570 10567 10564 10561 10557 10554 10551 10547 10543 10538 10533 10528 10523 10518 10513 10508 10502 10497 10492 10486 10480 10474 10467 10461 10455 10451 10445 10437 10429 10421 10413 10406 10396 10384 10375 10366 10353 10342 10332 10323 10315 10307 10300 10293 10284 10277 10271 10264 10258 10251 10246 10241 10234 10226 10220 10216 10210 10205 10199 10193 10188 10182 10176 10171 10166
10636 10633 10630 10627 10624 10622 10618 10615 10611 10607 10604 10600 10597 10594 10591 10589 10586 10583 10581 10578 10576 10573 10570 10567 10564 10561 10557 10554 10551 10546 10542 10538 10534 10529 10524 10519 10513 10508 10504 10498 10492 10486 10480 10474 10468 10461 10454 10446 10440 10436 10428 10421 10413 10404 10397 10388 10376 10365 10356 10345 10333 10323 10313 10305 10297 10290 10283 10275 10267 10261 10255 10249 10242 10236 10232 10226 10218 10211 10204 10199 10193 10188 10183 10178 10172 10166 10161 10156
10633 10630 10627 10624 10621 10618 10615 10611 10608 10604 10601 10598 10594 10592 10589 10586 10584 10581 10579 10576 10574 10571 10568 10565 10561 10558 10554 10550 10547 10542 10538 10534 10530 10525 10520 10515 10510 10504 10499 10493 10488 10482 10475 10469 10462 10454 10447 10439 10431 10425 10418 10411 10403 10393 10384 10376 10366 10355 10344 10334 10325 10314 10305 10296 10288 10281 10274 10266 10259 10252 10247 10240 10233 10226 10223 10218 10212 10206 10199 10192 10185 10179 10174 10168 10162 10157 10152 10146
10630 10627 10624 10621 10618 10615 10611 10608 10604 10601 10598 10595 10592 10589 10587 10584 10582 10579 10577 10574 10571 10568 10565 10562 10558 10555 10551 10547 10543 10538 10534 10530 10526 10521 10516 10511 10506 10500 10494 10489 10483 10477 10470 10464 10456 10449 10441 10432 10424 10416 10409 10402 10395 10386 10375 10366 10358 10347 10337 10326 10316 10306 10297 10288 10280 10273 10266 10258 10250 10244 10238 10232 10225 10217 10212 10207 10202 10197 10191 10185 10179 10173 10166 10160 10153 10148 10142 10136
10627 10624 10621 10618 10615 10612 10608 10604 10601 10598 10595 10592 10589 10587 10584 10582 10580 10577 10575 10572 10569 10566 10563 10559 10556 10552 10549 10545 10540 10535 10530 10525 10520 10516 10512 10506 10501 10495 10490 10484 10478 10472 10465 10458 10451 10443 10435 10427 10418 10410 10403 10394 10387 10379 10368 10356 10346 10337 10328 10318 10308 10298 10289 10280 10273 10266 10258 10249 10242 10236 10230 10224 10217 10209 10203 10197 10192 10186 10180 10174 10168 10162 10156 10149 10143 10137 10131 10125
10624 10621 10618 10615 10612 10608 10605 10601 10598 10595 10592 10590 10587 10585 10582 10580 10578 10575 10573 10570 10567 10564 10560 10557 10553 10549 10546 10542 10538 10534 10529 10523 10517 10512 10507 10502 10497 10491 10486 10480 10473 10466 10460 10453 10445 10438 10430 10422 10414 10406 10399 10390 10381 10372 10363 10352 10340 10330 10320 10310 10300 10290 10281 10272 10265 10259 10251 10242 10234 10228 10223 10217 10210 10202 10195 10188 10182 10176 10170 10164 10158 10152 10146 10139 10133 10128 10122 10115
10621 10618 10615 10612 10608 10605 10602 10599 10596 10593 10590 10588 10585 10583 10581 10578 10576 10573 10570 10567 10564 10561 10558 10554 10550 10546 10543 10539 10534 10530 10525 10521 10516 10510 10505 10499 10493 10487 10481 10475 10468 10461 10454 10447 10440 10432 10424 10416 10408 10400 10393 10386 10378 10369 10360 10349 10337 10325 10314 10303 10292 10282 10272 10264 10258 10253 10245 10236 10228 10221 10215 10209 10203 10196 10188 10181 10175 10169 10163 10157 10150 10143 10137 10130 10124 10118 10111 10104
10618 10615 10612 10609 10605 10602 10599 10596 10593 10591 10588 10586 10583 10581 10579 10576 10574 10571 10568 10565 10562 10558 10555 10551 10547 10543 10539 10535 10530 10526 10521 10517 10512 10507 10501 10496 10489 10483 10476 10469 10462 10455 10448 10441 10433 10426 10418 10410 10402 10394 10386 10378 10371 10362 10352 10342 10331 10318 10307 10296 10286 10276 10266 10258 10253 10248 10240 10232 10224 10216 10209 10204 10198 10191 10184 10176 10169 10163 10156 10149 10142 10135 10126 10120 10115 10109 10102 10094
10615 10612 10609 10606 10603 10600 10597 10594 10591 10588 10586 10584 10581 10579 10577 10574 10571 10568 10565 10562 10559 10556 10552 10548 10545 10541 10536 10532 10527 10523 10518 10513 10508 10502 10496 10490 10484 10477 10470 10463 10456 10449 10442 10434 10427 10419 10412 10404 10396 10389 10381 10373 10364 10354 10345 10336 10326 10315 10304 10295 10285 10274 10262 10252 10247 10242 10233 10227 10220 10213 10205 10198 10191 10184 10177 10170 10162 10155 10148 10141 10134 10128 10120 10112 10105 10100 10092 10084